TITAN 3C TRANSTAGE DEB, 1684

Orbit data source: Space-Track

TITAN 3C TRANSTAGE DEB, 1684 is space debris in LEO originally from a launch on Fri, 15 Oct 1965 UTC launched from the Air Force Eastern Test Range (AFETR). Debris objects in space refer to the collection of defunct objects orbiting the Earth. Examples of debris include non-operational satellites, rocket bodies, and fragments generated from explosions, collisions, or faulty payload assembly.

Loading next visibility...
Identifier
1684, 1965-082AX
Orbit
LEO
Country
Flag of USUS
Related business
Manufacturer
Unknown
Mission
Spacecraft
Bus & Motor
Unknown
Mass
Unknown
Launch date (UTC)
1965-10-15 (61 years ago)
Launch vehicle
Unknown
Launch site
Air Force Eastern Test Range (AFETR)
Object type
Payload
Rocket body
Debris
Shape & HBR
Unknown shape, 0.9 m
Radar Cross Section
Large (>1 m²)

Expand to show TLE details & history
Last TLE update: 22 hours ago

TLE from 22 hours ago
0 TITAN 3C TRANSTAGE DEB
1 01684U 65082AX  26236.12780685  .00000821  00000-0  20580-3 0  9995
2 01684  32.2135 149.3336 0166622 296.7886  61.5798 14.40484203152346
Epoch: 2026-08-24T03:04Z
TLE epoch observation values (Epoch: 2026-08-24T03:04:02.511Z)
Latitude
-0.00001°
Longitude
130.90916°
Altitude
700.553 km
Speed
7.537 km/s
True Right ascension
09h 57m 20s
True Declination
0° 00' 00"
Sunlit
Object was in daylight at epoch
Visualization orbit readout
Latitude
Unknown
Longitude
Unknown
Altitude
Unknown
Speed
Unknown
Apparent Right ascension
Unknown
Apparent Declination
Unknown
Sunlit
N/A
Visualization observer readout
Local Sidereal Time
15:55:28
Azimuth
Unknown
Elevation
Unknown
Doppler factor
Unknown
Orbital elements
Apogee altitude
879.392 km
Perigee altitude
641.503 km
Semi-major axis
7,138.585 km
Eccentricity
0.01666
Inclination
32.2135°
RAAN
149.3336°
Arg. of periapsis
296.7886°
True anomaly
63.27559°
Mean anomaly
61.5798°
Eccentric anomaly
62.42604°
Mean motion
3.59853 °/min
Orbital period
100.04 mins
BSTAR
0.0002058

Documentation

Showing up to 5 results
|